Wind_Speed
32 32 33 33 33 33 33 34 35 36 37 38 38 39 39 40 41 42 42 43 44 45 46 46 46 47 48 49 50 51 52 53 55 55 56 58 59 60 61 61 61 61 61
32 33 33 33 34 34 35 36 37 38 39 40 41 41 42 43 44 44 44 45 46 47 47 47 48 48 50 51 52 53 54 55 55 57 57 58 58 58 58 57 57 57 56
33 34 34 35 35 36 37 38 39 40 41 42 43 44 44 45 45 45 46 46 47 47 48 49 50 51 51 52 52 53 54 54 54 54 54 54 54 54 54 54 53 52 51
33 34 35 36 37 37 38 39 40 41 42 43 44 44 44 45 45 45 46 47 47 48 49 50 51 51 51 52 52 52 52 52 52 51 51 51 51 51 50 49 48 47 46
33 34 35 35 36 37 38 39 41 41 42 43 43 43 44 44 44 46 47 47 48 48 48 49 49 50 50 50 50 50 50 50 49 47 47 47 46 45 43 42 41 41 40
32 32 33 34 35 36 37 38 39 40 40 41 41 41 42 43 44 45 45 45 45 45 45 46 46 45 45 44 44 44 43 42 42 42 41 40 38 37 35 34 33 33 32
30 31 32 33 34 35 35 36 36 37 37 37 38 38 40 40 41 41 41 41 41 42 42 41 39 38 37 36 36 36 35 35 34 34 32 31 30 29 28 28 27 27 26
28 29 29 30 30 31 32 33 33 33 34 34 35 36 37 37 37 37 36 36 36 35 33 32 31 30 29 28 27 27 27 26 25 24 24 23 22 22 22 22 21 21 20
25 26 26 27 28 29 29 29 29 30 31 32 33 33 32 32 31 30 30 29 29 28 27 25 24 23 21 21 20 19 19 18 17 16 16 16 17 16 16 16 16 16 16
24 24 24 24 24 24 25 25 26 27 28 29 28 28 27 26 26 26 25 24 24 23 21 19 18 17 15 15 14 13 12 12 11 11 11 12 12 12 12 13 14 14 15
21 21 21 21 21 22 22 23 23 24 25 24 24 22 22 21 20 20 20 19 19 18 17 15 13 12 12 12 11 11 10 10 10 9 10 10 11 11 12 12 13 13 14
18 19 19 19 20 20 21 21 20 20 20 19 18 17 17 16 17 17 16 15 15 14 13 12 11 11 11 11 11 11 11 10 10 10 10 11 11 12 12 12 13 13 14
17 17 17 18 18 17 17 17 16 15 15 14 13 13 13 13 13 13 12 12 12 11 11 11 10 10 11 11 11 11 11 11 11 11 11 12 12 12 12 13 13 14 14
15 15 15 15 14 13 13 13 12 12 11 11 11 10 11 11 11 11 10 10 10 10 10 10 10 10 10 11 12 12 12 12 12 12 12 12 13 13 13 13 13 13 13
14 14 13 12 11 11 11 11 10 10 9 9 9 9 9 9 10 10 10 9 9 9 10 10 10 11 11 11 12 12 12 12 13 13 13 13 13 13 13 13 13 12 13
11 11 10 10 10 9 9 9 8 8 8 8 7 7 8 9 9 9 10 9 9 9 10 11 11 11 11 12 12 12 13 13 13 13 13 13 13 13 13 12 12 12 12
10 10 10 9 9 8 8 7 7 7 7 6 6 6 7 7 8 9 9 9 9 10 10 12 12 12 12 12 13 13 13 14 13 13 12 12 13 12 12 12 12 12 12
9 9 9 8 7 7 6 6 6 5 5 5 5 5 6 7 8 8 9 9 10 10 11 12 12 13 13 13 13 14 14 13 13 12 12 12 12 12 11 11 11 11 11
7 7 7 6 6 5 5 5 5 5 4 4 5 5 5 6 7 8 9 9 10 11 11 12 13 13 13 14 14 14 14 13 12 12 12 12 12 11 11 10 10 11 11
6 6 5 5 4 4 4 4 4 4 3 3 4 4 5 6 7 8 8 9 10 11 12 13 13 14 14 14 14 14 13 12 12 12 12 12 11 10 10 10 10 10 10
4 4 3 4 4 4 4 3 3 3 3 3 4 4 5 6 7 7 8 9 10 11 12 13 14 14 14 14 14 14 13 12 12 12 11 11 10 10 9 9 9 9 9
3 3 3 3 3 3 3 3 2 2 2 3 4 5 6 6 7 8 8 9 10 11 12 13 14 14 14 14 14 13 13 12 12 11 11 11 10 9 9 9 9 9 9
3 2 2 2 2 2 2 2 2 2 2 3 4 5 6 6 6 7 8 9 10 11 12 13 13 13 13 13 13 13 12 12 12 11 11 11 10 9 9 9 9 9 9
4 3 3 2 1 1 1 2 2 2 3 3 4 5 5 6 6 7 8 9 9 10 12 12 13 13 13 13 13 13 12 12 11 11 11 10 10 10 10 10 10 10 10
7 6 4 3 2 2 2 2 2 2 3 3 4 4 5 5 6 6 7 8 9 10 11 12 12 12 13 13 13 13 12 12 11 11 11 11 11 11 11 11 11 11 12
9 8 7 6 5 5 4 4 3 3 3 3 3 4 5 5 5 6 7 8 9 10 11 11 11 12 12 13 13 13 13 12 12 12 12 12 12 12 13 13 13 14 14
Wind_Direction
269 271 274 277 278 279 280 282 284 285 286 288 288 289 290 291 291 290 289 289 289 289 288 287 286 284 283 282 282 281 279 279 278 278 278 278 278 278 278 278 279 280 281
270 272 274 276 277 277 278 280 282 284 285 288 289 289 290 290 290 290 290 289 289 289 288 287 287 286 284 283 281 281 280 279 279 279 279 278 278 278 278 278 280 281 282
270 271 273 274 275 277 278 280 282 283 285 287 288 289 290 290 291 291 290 290 290 289 289 288 287 286 285 283 282 282 281 280 280 279 279 279 279 279 280 281 282 283 284
270 271 272 274 275 277 278 281 282 284 285 287 288 289 290 291 291 292 292 291 290 290 290 289 287 286 285 284 283 281 280 280 280 279 279 280 280 281 283 283 285 286 287
270 271 273 274 276 278 279 281 283 284 286 288 289 289 290 291 292 293 293 293 293 292 292 290 289 287 286 284 283 281 280 280 280 280 280 281 282 283 284 285 287 288 290
273 274 275 276 277 279 280 282 284 286 287 289 289 291 292 293 293 294 295 295 296 295 294 293 291 290 289 287 284 283 282 282 282 282 283 284 285 286 287 288 289 291 292
274 275 276 277 278 279 281 284 286 288 289 291 292 293 294 294 295 295 297 297 297 297 297 296 295 295 293 292 290 288 286 285 285 284 284 286 287 288 288 289 291 293 294
275 276 277 278 279 281 283 285 287 289 290 291 292 294 295 296 298 298 299 300 301 302 302 302 302 301 301 300 298 296 294 292 291 290 289 289 289 289 291 293 295 298 299
275 277 278 280 282 284 286 287 289 290 292 293 295 297 298 299 300 302 305 307 309 310 312 312 311 310 310 310 309 306 303 301 299 298 297 297 296 297 301 303 305 306 307
277 279 281 283 285 286 287 288 290 292 295 297 298 299 300 302 306 309 313 315 318 321 322 321 321 321 323 326 326 326 324 322 320 317 315 313 312 313 315 316 316 316 317
277 279 281 283 284 286 288 291 293 295 297 299 301 302 305 309 315 319 323 326 329 332 334 336 339 345 349 352 352 351 349 345 341 338 333 329 328 327 326 325 325 324 326
277 279 281 284 285 286 289 292 295 298 301 304 306 309 314 318 321 325 330 335 339 343 349 353 356 359 360 360 1 1 359 355 352 348 345 342 340 337 335 334 334 334 334
277 279 282 284 284 286 289 293 297 303 308 313 317 323 327 329 330 335 340 345 348 352 356 357 359 1 2 2 2 1 1 359 356 352 349 346 342 340 341 342 342 342 343
277 278 280 282 284 286 289 294 301 308 314 320 326 333 338 339 341 344 346 348 351 354 357 359 359 359 359 358 356 355 355 355 354 352 349 346 345 344 345 346 348 349 351
278 277 280 282 283 285 290 297 306 310 315 320 326 336 342 346 349 351 353 353 355 356 356 355 355 354 354 354 352 350 351 351 351 350 347 348 349 350 350 351 353 355 356
279 279 281 283 282 285 290 298 305 309 315 321 328 336 342 346 350 354 355 353 353 354 354 353 352 351 351 348 347 349 349 347 346 346 347 350 352 354 355 357 358 360 1
282 282 284 283 282 283 288 295 302 307 313 321 330 338 345 350 353 355 355 353 351 350 351 351 350 349 347 345 346 347 348 348 347 348 352 354 356 357 358 1 3 4 6
286 285 285 281 279 281 285 292 299 306 314 322 333 340 346 350 352 352 352 351 351 351 351 351 350 349 348 347 346 347 349 350 351 352 355 358 0 1 4 5 6 8 11
292 288 283 279 274 273 279 288 296 304 314 324 334 342 348 350 350 349 350 350 351 352 352 352 353 353 352 350 350 351 352 354 357 358 360 0 1 5 9 10 10 13 16
294 287 280 275 270 270 271 278 287 300 314 328 337 340 344 346 347 348 350 352 353 353 353 355 356 356 356 356 356 358 359 1 2 3 3 3 4 9 16 18 17 18 21
300 293 285 276 272 270 266 269 277 290 306 323 332 336 341 344 345 347 348 350 351 353 355 356 357 359 360 1 1 2 3 3 4 4 6 8 11 17 23 24 23 24 26
316 308 302 288 274 267 264 265 278 294 308 320 329 334 338 340 343 345 345 346 349 352 356 358 360 2 3 4 5 6 7 7 9 11 13 16 19 24 30 32 33 34 35
347 334 320 299 280 265 262 272 287 302 316 326 332 335 337 340 343 346 348 351 353 356 359 1 4 5 7 8 9 11 12 15 17 19 21 24 27 32 37 41 44 47 47
28 22 10 350 326 314 302 305 306 309 321 329 333 339 343 346 350 351 353 356 358 0 3 5 7 10 12 13 14 16 18 21 24 26 29 32 37 43 48 51 54 57 58
44 41 37 35 34 30 17 357 344 340 341 342 342 348 353 356 359 1 1 2 3 6 8 10 12 15 17 19 21 24 27 30 33 37 41 44 48 54 58 61 63 65 67
45 44 45 46 46 43 33 22 14 7 3 3 7 11 12 13 13 13 11 10 10 12 14 16 18 20 23 26 29 32 36 40 44 48 51 55 60 64 67 69 71 73 75
Height
5792 5792 5792 5793 5793 5793 5793 5793 5792 5791 5790 5789 5787 5786 5784 5782 5780 5778 5776 5773 5771 5768 5765 5762 5759 5756 5753 5750 5747 5744 5741 5738 5734 5730 5727 5723 5720 5716 5712 5707 5703 5698 5693
5784 5785 5785 5785 5785 5785 5785 5784 5784 5782 5781 5779 5777 5775 5773 5771 5768 5766 5763 5761 5758 5755 5752 5748 5745 5742 5739 5735 5732 5729 5725 5722 5719 5714 5711 5707 5704 5700 5696 5692 5687 5683 5679
5777 5777 5777 5777 5777 5777 5776 5775 5774 5772 5771 5769 5767 5765 5762 5759 5756 5754 5751 5748 5745 5741 5738 5734 5731 5727 5723 5720 5716 5713 5709 5706 5702 5698 5695 5691 5688 5684 5680 5676 5673 5668 5664
5769 5770 5769 5769 5769 5768 5767 5766 5764 5762 5761 5758 5756 5753 5751 5748 5744 5741 5738 5735 5731 5728 5724 5720 5715 5711 5707 5704 5700 5696 5693 5689 5686 5682 5679 5675 5672 5669 5666 5662 5659 5655 5652
5761 5761 5760 5760 5759 5758 5757 5756 5754 5752 5750 5748 5745 5742 5739 5736 5733 5729 5726 5722 5717 5713 5709 5704 5700 5695 5691 5687 5683 5679 5676 5673 5670 5667 5664 5661 5658 5655 5653 5649 5647 5643 5640
5752 5751 5751 5751 5750 5749 5748 5746 5744 5742 5739 5737 5734 5731 5728 5725 5721 5717 5713 5709 5704 5699 5694 5689 5684 5679 5675 5671 5667 5664 5661 5658 5655 5653 5651 5648 5646 5644 5641 5639 5637 5634 5632
5743 5743 5742 5741 5741 5740 5738 5736 5734 5732 5729 5727 5724 5721 5717 5714 5710 5706 5701 5697 5692 5686 5681 5676 5671 5666 5662 5658 5654 5651 5648 5646 5644 5642 5640 5638 5637 5635 5633 5631 5629 5627 5624
5735 5735 5734 5733 5732 5731 5729 5727 5725 5723 5720 5717 5714 5711 5708 5704 5700 5695 5691 5686 5681 5675 5670 5665 5661 5656 5652 5648 5645 5642 5639 5637 5635 5634 5632 5630 5629 5627 5626 5624 5623 5620 5618
5728 5727 5726 5725 5724 5723 5721 5719 5717 5714 5712 5709 5705 5702 5698 5695 5690 5686 5682 5677 5672 5667 5662 5657 5653 5650 5646 5642 5639 5636 5633 5632 5630 5628 5627 5625 5624 5623 5621 5620 5618 5616 5614
5721 5720 5719 5718 5717 5715 5714 5712 5709 5707 5704 5700 5697 5693 5690 5686 5683 5678 5674 5670 5665 5661 5657 5653 5649 5646 5642 5639 5636 5633 5631 5629 5627 5625 5624 5623 5621 5620 5618 5617 5615 5613 5610
5714 5714 5712 5711 5710 5709 5707 5705 5703 5700 5697 5694 5690 5686 5683 5680 5676 5673 5669 5665 5661 5658 5654 5650 5647 5644 5641 5638 5636 5633 5631 5628 5626 5625 5623 5621 5620 5618 5616 5614 5612 5610 5607
5708 5708 5707 5706 5704 5703 5701 5699 5697 5694 5691 5688 5685 5681 5678 5675 5672 5669 5665 5662 5659 5656 5653 5650 5647 5644 5642 5639 5636 5634 5631 5629 5627 5625 5623 5621 5619 5617 5614 5612 5610 5607 5605
5703 5702 5701 5700 5699 5697 5696 5694 5692 5690 5687 5684 5681 5678 5675 5672 5669 5667 5664 5661 5658 5656 5653 5651 5648 5645 5643 5640 5638 5635 5632 5630 5627 5625 5623 5620 5618 5616 5613 5611 5608 5606 5603
5698 5697 5696 5695 5694 5693 5691 5690 5688 5686 5684 5681 5679 5676 5673 5671 5668 5666 5663 5661 5658 5656 5653 5651 5649 5646 5644 5641 5638 5635 5633 5630 5627 5625 5622 5620 5617 5615 5612 5609 5607 5604 5602
5693 5692 5692 5691 5690 5689 5688 5686 5685 5683 5681 5679 5677 5675 5672 5670 5668 5665 5663 5661 5658 5656 5654 5652 5649 5646 5644 5641 5638 5636 5633 5630 5627 5624 5622 5619 5616 5614 5611 5609 5606 5604 5601
5689 5688 5688 5687 5686 5686 5685 5683 5682 5681 5679 5677 5676 5674 5672 5670 5667 5665 5663 5661 5659 5656 5654 5652 5649 5647 5644 5641 5638 5635 5632 5629 5626 5624 5621 5618 5616 5613 5610 5608 5606 5603 5601
5685 5685 5684 5684 5683 5683 5682 5681 5680 5679 5678 5676 5674 5673 5671 5669 5667 5665 5663 5661 5659 5657 5654 5652 5649 5646 5643 5640 5637 5634 5631 5628 5625 5623 5620 5617 5615 5612 5610 5608 5606 5603 5601
5682 5681 5681 5681 5680 5680 5679 5679 5678 5677 5676 5675 5673 5672 5670 5668 5667 5665 5663 5661 5659 5656 5654 5651 5648 5645 5642 5639 5636 5633 5630 5627 5625 5622 5619 5617 5615 5612 5610 5608 5606 5604 5602
5679 5678 5678 5678 5678 5678 5677 5677 5676 5676 5675 5674 5673 5671 5670 5668 5666 5665 5663 5661 5658 5656 5654 5651 5648 5645 5642 5639 5635 5632 5629 5627 5624 5621 5619 5617 5614 5612 5610 5608 5606 5605 5603
5676 5676 5676 5676 5676 5676 5676 5675 5675 5674 5674 5673 5672 5671 5669 5668 5666 5664 5662 5660 5658 5656 5653 5650 5647 5644 5641 5638 5635 5632 5629 5626 5624 5621 5619 5617 5615 5612 5610 5609 5607 5606 5604
5674 5674 5674 5674 5674 5674 5674 5674 5674 5673 5673 5672 5671 5670 5668 5667 5665 5664 5662 5660 5658 5655 5652 5650 5647 5644 5641 5638 5635 5632 5629 5626 5624 5621 5619 5617 5615 5613 5611 5610 5608 5607 5605
5673 5673 5673 5673 5673 5673 5673 5673 5672 5672 5671 5671 5670 5669 5668 5666 5665 5663 5661 5659 5657 5655 5652 5649 5646 5643 5640 5637 5635 5632 5629 5627 5624 5622 5619 5617 5616 5614 5612 5611 5610 5608 5607
5672 5672 5672 5672 5672 5672 5672 5672 5671 5671 5671 5670 5669 5668 5667 5666 5664 5663 5661 5659 5657 5654 5652 5649 5646 5643 5640 5638 5635 5632 5630 5627 5625 5622 5620 5619 5617 5615 5614 5612 5611 5610 5609
5672 5672 5671 5671 5671 5671 5671 5671 5670 5670 5670 5669 5668 5667 5666 5665 5664 5662 5660 5658 5656 5654 5651 5649 5646 5644 5641 5638 5636 5633 5630 5628 5626 5624 5622 5620 5619 5617 5616 5615 5613 5612 5611
5673 5673 5672 5672 5671 5671 5671 5671 5670 5670 5669 5668 5668 5667 5666 5665 5663 5662 5660 5658 5656 5654 5652 5649 5647 5644 5642 5639 5637 5634 5632 5629 5627 5625 5624 5622 5621 5619 5618 5617 5616 5615 5614
5676 5675 5674 5673 5672 5672 5671 5671 5670 5669 5669 5668 5667 5666 5666 5665 5663 5662 5660 5658 5657 5654 5652 5650 5648 5645 5643 5641 5638 5636 5634 5632 5630 5628 5626 5625 5624 5622 5621 5621 5620 5619 5618